Location: Unspecified
(0.0000°N, 0.0000°E)
Time: 23:12:40
(UTC+00:00)

CUBESAT XI-V - Pass Details

Date: 08 December 2017
Orbit: 670 x 694 km, 97.9° (Epoch: 15 January)

Event Time Altitude Azimuth Distance (km) Brightness Sun altitude
Rises 04:17:20 0° 182° (S) 3,015 ? -21.7°
Reaches altitude 10° 04:19:41 10° 190° (S) 2,101 ? -21.2°
Maximum altitude 04:23:57 39° 258° (WSW) 1,008 ? -20.2°
Enters shadow 04:23:58 39° 259° (WSW) 1,008 ? -20.2°
